This is the latest recevied weather packets stored in our database for station/object AD8BV. If no packets are shown the sender has not sent any weather packets the latest 10 day(s).
| Time | Temp. | Humidity | Pressure | Rain* | Wind** | Luminosity | Snow |
|---|---|---|---|---|---|---|---|
| 1777730996 | 5.56° C | 61% | 1020.1 hPa | 0 mm | - | 166 W/m² | - |
| 1777730695 | 5.56° C | 65% | 1020.2 hPa | 0 mm | - | 128 W/m² | - |
| 1777730391 | 5.56° C | 64% | 1020.2 hPa | 0 mm | - | 102 W/m² | - |
| 1777730087 | 5° C | 65% | 1020.2 hPa | 0 mm | - | 182 W/m² | - |
| 1777729784 | 5° C | 65% | 1020.1 hPa | 0 mm | - | 234 W/m² | - |
| 1777729481 | 5° C | 67% | 1020 hPa | 0 mm | - | 292 W/m² | - |
| 1777729177 | 5° C | 67% | 1020.2 hPa | 0 mm | - | 173 W/m² | - |
| 1777728874 | 5° C | 70% | 1020.1 hPa | 0 mm | - | 201 W/m² | - |
| 1777728571 | 4.44° C | 70% | 1020.4 hPa | 0 mm | - | 207 W/m² | - |
| 1777728268 | 4.44° C | 71% | 1020.4 hPa | 0 mm | - | 85 W/m² | - |
| 1777727965 | 3.89° C | 72% | 1020.3 hPa | 0 mm | - | 95 W/m² | - |
| 1777727662 | 3.89° C | 73% | 1020 hPa | 0 mm | - | 187 W/m² | - |
| 1777727359 | 3.89° C | 73% | 1020.2 hPa | 0 mm | - | 177 W/m² | - |
| 1777727056 | 3.89° C | 75% | 1020.4 hPa | 0 mm | - | 211 W/m² | - |
| 1777726754 | 3.89° C | 75% | 1020.2 hPa | 0 mm | - | 138 W/m² | - |
| 1777726451 | 3.33° C | 76% | 1020.3 hPa | 0 mm | - | 200 W/m² | - |
| 1777726147 | 3.33° C | 77% | 1020.3 hPa | 0 mm | - | 172 W/m² | - |
| 1777725844 | 3.33° C | 78% | 1020.2 hPa | 0 mm | - | 202 W/m² | - |
| 1777725542 | 2.78° C | 80% | 1020.1 hPa | 0 mm | - | 151 W/m² | - |
| 1777725239 | 2.78° C | 80% | 1020.2 hPa | 0 mm | - | 145 W/m² | - |
| 1777724936 | 2.22° C | 81% | 1020.3 hPa | 0 mm | - | 116 W/m² | - |
| 1777724632 | 2.22° C | 81% | 1020.2 hPa | 0 mm | - | 95 W/m² | - |
| 1777724331 | 2.22° C | 81% | 1020.3 hPa | 0 mm | - | 77 W/m² | - |
| 1777724028 | 1.67° C | 83% | 1020.3 hPa | 0 mm | - | 43 W/m² | - |
| 1777723725 | 1.67° C | 84% | 1020.2 hPa | 0 mm | - | 37 W/m² | - |
* Rain latest hour (hover to see other rain measurements)
** Current wind speed in m/s (hover to see current wind gust speed)